Location: Ku?niki
(51.4449°N, 17.8974°E)
Time: 06:09:52
(UTC+00:00)

Exosat Rocket - Pass Details

Date: 18 September 2020
Orbit: 761 x 2514 km, 72.3° (Epoch: 18 October)

Event Time Altitude Azimuth Distance (km) Brightness Sun altitude
Rises 18:59:30 0° 192° (SSW) 3,640 6.8 -19.3°
Reaches altitude 10° 19:02:14 10° 188° (S) 2,541 6.0 -19.7°
Maximum altitude 19:07:35 54° 112° (ESE) 947 3.6 -20.4°
Drops below altitude 10° 19:12:26 10° 35° (NE) 2,309 5.9 -21.1°
Sets 19:14:49 0° 31° (NNE) 3,276 6.8 -21.4°
